{"data":{"norad_id":66817,"intl_designator":"2025-278AC","name":"STARLINK-35995","alt_names":[],"object_type":"PAYLOAD","status":"ACTIVE","operator":null,"country":"US","launch_date":"2025-12-01","launch_site_code":"AFETR","launch_vehicle":null,"mission":null,"orbit_class":"UNKNOWN","rcs_meters":null,"size_class":null,"mass_kg":null,"dimensions":null,"purposes":["comms"],"wikipedia_slug":null,"has_3d_model":false,"image_url":null,"decayed_at":null,"tle_current":{"epoch":"2026-05-25T02:01:53.728032Z","epoch_age_seconds":61021,"freshness":"FRESH","line1":"1 66817U 25278AC  26145.08464963  .00024963  00000+0  91459-3 0  9994","line2":"2 66817  43.0021  42.8480 0001447 274.3233  85.7453 15.27544422 26899","mean_motion":15.27544422,"eccentricity":0.0001447,"inclination_deg":43.0021,"raan_deg":42.848,"arg_perigee_deg":274.3233,"mean_anomaly_deg":85.7453,"bstar":0.00091459,"rev_number":2689,"period_min":94.268944278204,"perigee_km":482.16280239472,"apogee_km":484.14846048226,"semimajor_km":6861.2926314385,"source":"CELESTRAK","updated_at":"2026-05-25T13:38:21.332620Z"}}}